#timestamp,LO_Frequency,Hit 
1501995615.8,286047001.6,N
1501995635.6,286047001.0,N
1501995655.4,286047001.1,N
1501995675.3,286046998.2,N
1501995695.1,286046998.6,N
1501995696.0,286046998.6,N
1501995715.8,286047003.7,N
1501995735.7,286047002.7,N
1501995755.5,286047004.3,N
1501995775.3,286046998.6,N
1501995795.2,286046998.1,N
1501995815.9,286046999.2,N
1501995835.7,286046997.5,N
1501995855.6,286046997.1,N
1501995875.4,286047000.3,N
1501995895.2,286047002.7,N
1501995915.0,286047001.2,N
1501995915.9,286047001.2,N
1501995935.8,286047001.2,N
1501995955.6,286046998.4,N
1501995975.4,286046997.6,N
1501995995.3,286046995.8,N
1501996015.1,286046993.8,N
1501996035.8,286046996.3,N
1501996055.7,286046995.3,N
1501996075.5,286047002.4,N
1501996095.3,286046998.4,N
1501996115.2,286046998.9,N
1501996135.9,286046995.9,N
1501996155.7,286046994.7,N
1501996175.6,286046991.7,P
1501996195.4,286046997.2,N
1501996215.2,286046995.3,N
1501996235.1,286046995.2,N
1501996236.0,286046995.2,N
1501996255.8,286046994.2,N
1501996275.6,286046994.4,N
1501996295.5,286046992.1,P
1501996315.3,286047001.4,N
1501996335.1,286047000.5,N
1501996355.9,286047001.1,N
1501996375.7,286046999.3,N
1501996395.5,286047000.2,N
1501996415.4,286047000.3,N
1501996435.2,286046999.4,N
1501996455.0,286047002.3,N
1501996455.9,286047002.3,N
1501996475.8,286047004.1,N
1501996495.6,286047001.3,N
1501996515.4,286047004.0,N
1501996535.3,286047000.2,N
1501996555.1,286047007.2,N
1501996556.0,286047007.2,N
1501996575.8,286047003.4,N
1501996595.7,286047003.2,N
1501996615.5,286047005.2,N
1501996635.3,286047003.9,N
1501996655.1,286047004.5,N
1501996675.9,286047004.7,N
1501996695.7,286047005.5,N
1501996715.5,286047000.1,N
1501996735.4,286047004.4,N
1501996755.2,286047000.1,N
1501996775.0,286047000.4,N
1501996775.9,286047000.4,N
1501996795.8,286047003.9,N
1501996815.6,286047003.8,N
1501996835.4,286047004.4,N
1501996855.3,286047002.9,N
1501996875.1,286047000.1,N
1501996876.0,286047000.1,N
1501996895.8,286047001.4,N
1501996915.7,286047002.0,N
1501996935.5,286047002.6,N
1501996955.3,286047005.3,N
1501996975.1,286047002.9,N
1501996995.9,286047004.4,N
1501997015.7,286047006.8,P
1501997035.6,286047003.3,N
1501997055.4,286047004.3,N
1501997075.2,286047003.6,N
1501997095.1,286047002.8,N
1501997096.0,286047002.8,N
1501997115.8,286047000.7,N
1501997135.6,286047002.3,N
1501997155.5,286047001.4,N
1501997175.3,286047002.9,N
1501997195.1,286047003.3,N
1501997215.9,286047005.1,P
1501997235.0,286047002.3,N
1501997235.9,286047002.3,N
1501997255.8,286047001.6,N
1501997275.6,286047002.9,N
1501997295.4,286047008.8,P
1501997315.3,286047005.9,N
1501997335.1,286047003.0,N
1501997355.8,286046999.7,N
1501997375.7,286046996.6,N
1501997395.5,286046999.3,N
1501997415.3,286046995.0,N
1501997435.2,286046999.3,N
1501997455.9,286046999.1,N
1501997475.7,286046993.6,N
1501997495.6,286046991.6,N
1501997515.4,286046992.2,N
1501997535.2,286046997.6,N
1501997555.0,286046997.9,N
1501997556.0,286046997.9,N
1501997575.8,286046994.4,N
1501997595.6,286046991.9,N
1501997615.4,286046993.8,N
1501997635.3,286046994.8,N
1501997655.1,286046992.1,N
1501997675.8,286046992.0,N
1501997695.7,286046992.1,N
1501997715.5,286046990.8,N
1501997735.3,286046991.5,N
1501997755.2,286046988.6,N
1501997775.9,286046991.4,N
1501997795.7,286046991.1,N
1501997815.6,286046987.6,N
1501997835.4,286046982.9,P
1501997855.2,286046987.1,N
1501997875.1,286046987.7,N
1501997876.0,286046987.7,N
1501997895.8,286046986.7,P
1501997915.6,286046999.3,N
1501997935.5,286047001.2,N
1501997955.3,286046997.2,N
1501997975.1,286046997.0,N
1501997995.9,286046998.9,N
1501998015.7,286046999.0,N
1501998035.5,286046998.8,N
1501998055.4,286046998.4,N
1501998075.2,286046998.6,N
1501998095.0,286046996.9,N
1501998095.9,286046996.9,N
1501998115.8,286047002.3,N
1501998135.6,286047000.2,N
1501998155.4,286047002.3,N
1501998175.2,286047005.8,N
1501998195.1,286047004.8,N
1501998196.0,286047004.8,N
1501998215.8,286047009.1,N
1501998235.6,286047008.7,N
1501998255.5,286047007.2,N
1501998275.3,286047007.3,N
1501998295.1,286047007.5,N
1501998315.9,286047007.6,N
1501998335.7,286047009.2,N
1501998355.5,286047007.8,N
1501998375.4,286047010.3,N
1501998395.2,286047008.0,N
1501998415.0,286047005.6,N
1501998415.9,286047005.6,N
1501998435.8,286047006.6,N
1501998455.6,286047005.1,N
1501998475.4,286047006.0,N
1501998495.3,286047007.3,N
1501998515.1,286047003.0,N
1501998516.0,286047003.0,N
1501998535.8,286047009.0,N
1501998555.7,286047008.7,N
1501998575.5,286047011.3,P
1501998595.3,286047008.1,N
1501998615.2,286047008.9,P
1501998635.9,286047008.8,P
1501998655.7,286046995.3,P
1501998675.6,286046995.1,N
1501998695.4,286046998.0,N
1501998715.2,286046999.6,N
1501998735.1,286046997.4,N
1501998736.0,286046997.4,N
1501998755.8,286046997.3,N
1501998775.6,286046998.6,N
1501998795.4,286046998.5,N
1501998815.3,286046998.6,N
1501998835.1,286046999.3,N
1501998855.8,286047000.5,N
1501998875.7,286047002.7,N
1501998895.5,286047000.7,N
1501998915.3,286046998.3,N
1501998935.2,286046998.9,N
1501998955.9,286046998.1,N
1501998975.7,286047000.5,N
1501998995.6,286047001.3,N
1501999015.4,286047000.9,N
1501999035.5,286047001.6,N
1501999055.4,286047003.7,N
1501999075.2,286047001.6,N
1501999095.0,286047000.4,N
1501999095.9,286047000.4,N
1501999115.8,286047002.5,N
1501999135.6,286047005.7,N
1501999155.4,286047001.5,N
1501999175.3,286047000.1,N
1501999195.1,286047002.4,N
